Stündliche Wetter Barra

Heute, 30 Oktober, Freitag

Zeit Temperatur Niederschläge Wind Luftdruck Luftfeuchtigkeit
00:00 +24°C° 0 mm 2 m/S 747 mmHg 95%
01:00 +23°C° 0 mm 2 m/S 746 mmHg 95%
02:00 +23°C° 0 mm 1 m/S 746 mmHg 95%
03:00 +23°C° 0 mm 1 m/S 746 mmHg 95%
04:00 +22°C° 0 mm 1 m/S 746 mmHg 95%
05:00 +23°C° 0 mm 1 m/S 747 mmHg 89%
06:00 +24°C° 0 mm 1 m/S 747 mmHg 83%
07:00 +25°C° 0 mm 1 m/S 748 mmHg 77%
08:00 +28°C° 0 mm 1 m/S 748 mmHg 66%
09:00 +30°C° 0 mm 2 m/S 748 mmHg 55%
10:00 +34°C° 0 mm 2 m/S 748 mmHg 43%
11:00 +34°C° 0 mm 3 m/S 747 mmHg 42%
12:00 +34°C° 0 mm 3 m/S 747 mmHg 41%
13:00 +35°C° 0 mm 4 m/S 746 mmHg 40%
14:00 +34°C° 0 mm 4 m/S 745 mmHg 44%
15:00 +33°C° 0 mm 4 m/S 745 mmHg 48%
16:00 +32°C° 0 mm 4 m/S 744 mmHg 51%
17:00 +30°C° 0 mm 4 m/S 745 mmHg 61%
18:00 +28°C° 0 mm 3 m/S 745 mmHg 70%
19:00 +26°C° 0 mm 2 m/S 746 mmHg 79%
20:00 +26°C° 0 mm 3 m/S 746 mmHg 83%
21:00 +25°C° 0 mm 3 m/S 746 mmHg 87%
22:00 +25°C° 0 mm 3 m/S 747 mmHg 90%
23:00 +24°C° 0 mm 3 m/S 747 mmHg 91%

Morgen, 31 Oktober, Samstag

Zeit Temperatur Niederschläge Wind Luftdruck Luftfeuchtigkeit
00:00 +24°C° 0 mm 3 m/S 747 mmHg 92%
01:00 +24°C° 0 mm 3 m/S 746 mmHg 93%
02:00 +24°C° 0 mm 3 m/S 746 mmHg 94%
03:00 +22°C° 0 mm 3 m/S 746 mmHg 94%
04:00 +22°C° 0 mm 3 m/S 746 mmHg 94%
05:00 +24°C° 0 mm 2 m/S 747 mmHg 90%
06:00 +25°C° 0 mm 2 m/S 747 mmHg 86%
07:00 +26°C° 0 mm 2 m/S 748 mmHg 82%
08:00 +28°C° 0 mm 2 m/S 748 mmHg 70%
09:00 +31°C° 0 mm 2 m/S 748 mmHg 59%
10:00 +34°C° 0 mm 2 m/S 748 mmHg 47%
11:00 +34°C° 0 mm 3 m/S 747 mmHg 48%
12:00 +34°C° 0 mm 4 m/S 747 mmHg 49%
13:00 +34°C° 0 mm 4 m/S 746 mmHg 50%
14:00 +33°C° 0 mm 4 m/S 746 mmHg 54%
15:00 +33°C° 0 mm 4 m/S 745 mmHg 57%
16:00 +32°C° 0 mm 4 m/S 745 mmHg 60%
17:00 +29°C° 0 mm 4 m/S 745 mmHg 67%
18:00 +28°C° 0 mm 3 m/S 746 mmHg 74%
19:00 +26°C° 0 mm 3 m/S 747 mmHg 81%
20:00 +26°C° 0 mm 3 m/S 747 mmHg 83%
21:00 +25°C° 0 mm 2 m/S 748 mmHg 86%
22:00 +25°C° 0 mm 2 m/S 748 mmHg 88%
23:00 +24°C° 0 mm 2 m/S 748 mmHg 89%

übermorgen, 1 November, Sonntag

Zeit Temperatur Niederschläge Wind Luftdruck Luftfeuchtigkeit
00:00 +24°C° 0 mm 2 m/S 748 mmHg 90%
01:00 +23°C° 0 mm 2 m/S 748 mmHg 91%
02:00 +23°C° 0 mm 2 m/S 748 mmHg 92%
03:00 +23°C° 0 mm 1 m/S 748 mmHg 93%
04:00 +22°C° 0 mm 1 m/S 748 mmHg 94%
05:00 +23°C° 0 mm 1 m/S 748 mmHg 89%
06:00 +24°C° 0 mm 1 m/S 749 mmHg 84%
07:00 +25°C° 0 mm 1 m/S 749 mmHg 80%
08:00 +28°C° 0 mm 1 m/S 749 mmHg 67%
09:00 +31°C° 0 mm 1 m/S 749 mmHg 54%
10:00 +33°C° 0 mm 1 m/S 749 mmHg 41%
11:00 +34°C° 0 mm 2 m/S 749 mmHg 42%
12:00 +34°C° 0 mm 3 m/S 748 mmHg 43%
13:00 +34°C° 0 mm 3 m/S 748 mmHg 44%
14:00 +33°C° 0 mm 3 m/S 748 mmHg 47%
15:00 +33°C° 0 mm 3 m/S 747 mmHg 49%
16:00 +31°C° 0 mm 3 m/S 747 mmHg 52%
17:00 +29°C° 0 mm 3 m/S 747 mmHg 60%
18:00 +27°C° 0 mm 2 m/S 748 mmHg 69%
19:00 +25°C° 0 mm 2 m/S 748 mmHg 77%
20:00 +25°C° 0 mm 1 m/S 748 mmHg 80%
21:00 +24°C° 0 mm 1 m/S 749 mmHg 82%
22:00 +24°C° 0 mm 1 m/S 749 mmHg 85%
23:00 +23°C° 0 mm 1 m/S 749 mmHg 86%

2 November, Montag

Zeit Temperatur Niederschläge Wind Luftdruck Luftfeuchtigkeit
00:00 +23°C° 0 mm 1 m/S 749 mmHg 88%
01:00 +23°C° 0 mm 1 m/S 749 mmHg 89%
02:00 +23°C° 0 mm 1 m/S 749 mmHg 90%
03:00 +22°C° 0 mm 1 m/S 749 mmHg 91%
04:00 +22°C° 0 mm 1 m/S 749 mmHg 92%
05:00 +23°C° 0 mm 1 m/S 749 mmHg 87%
06:00 +24°C° 0 mm 1 m/S 750 mmHg 81%
07:00 +26°C° 0 mm 1 m/S 750 mmHg 76%
08:00 +28°C° 0 mm 2 m/S 750 mmHg 68%
09:00 +30°C° 0 mm 2 m/S 750 mmHg 59%
10:00 +33°C° 0 mm 3 m/S 750 mmHg 51%
11:00 +33°C° 0 mm 3 m/S 750 mmHg 50%
12:00 +33°C° 0 mm 3 m/S 749 mmHg 49%
13:00 +33°C° 0 mm 4 m/S 749 mmHg 49%
14:00 +33°C° 0 mm 4 m/S 749 mmHg 50%
15:00 +32°C° 0 mm 4 m/S 748 mmHg 52%
16:00 +31°C° 0 mm 3 m/S 748 mmHg 53%
17:00 +29°C° 0 mm 3 m/S 749 mmHg 63%
18:00 +27°C° 0 mm 3 m/S 749 mmHg 73%
19:00 +25°C° 0 mm 2 m/S 750 mmHg 82%
20:00 +25°C° 0 mm 2 m/S 750 mmHg 86%
21:00 +24°C° 0 mm 2 m/S 750 mmHg 89%
22:00 +24°C° 0 mm 2 m/S 751 mmHg 92%
23:00 +24°C° 0.1 mm 2 m/S 750 mmHg 91%

3 November, Dienstag

Zeit Temperatur Niederschläge Wind Luftdruck Luftfeuchtigkeit
00:00 +24°C° 0.1 mm 2 m/S 750 mmHg 89%
01:00 +25°C° 0.1 mm 3 m/S 750 mmHg 88%
02:00 +24°C° 0 mm 3 m/S 750 mmHg 88%
03:00 +24°C° 0 mm 3 m/S 749 mmHg 89%
04:00 +24°C° 0 mm 2 m/S 749 mmHg 89%
05:00 +25°C° 0 mm 3 m/S 750 mmHg 85%
06:00 +26°C° 0 mm 3 m/S 750 mmHg 81%
07:00 +26°C° 0 mm 3 m/S 751 mmHg 77%
08:00 +28°C° 0 mm 4 m/S 751 mmHg 68%
09:00 +29°C° 0 mm 4 m/S 751 mmHg 60%
10:00 +32°C° 0 mm 5 m/S 751 mmHg 51%
11:00 +32°C° 0 mm 5 m/S 750 mmHg 49%
12:00 +32°C° 0 mm 5 m/S 750 mmHg 47%
13:00 +33°C° 0 mm 5 m/S 750 mmHg 45%
14:00 +32°C° 0 mm 5 m/S 749 mmHg 46%
15:00 +32°C° 0 mm 5 m/S 749 mmHg 48%
16:00 +30°C° 0 mm 5 m/S 749 mmHg 49%
17:00 +28°C° 0 mm 4 m/S 749 mmHg 58%
18:00 +27°C° 0 mm 4 m/S 750 mmHg 67%
19:00 +25°C° 0 mm 4 m/S 750 mmHg 75%
20:00 +25°C° 0 mm 4 m/S 750 mmHg 78%
21:00 +23°C° 0 mm 4 m/S 751 mmHg 80%
22:00 +23°C° 0 mm 4 m/S 751 mmHg 83%
23:00 +23°C° 0 mm 4 m/S 751 mmHg 83%

4 November, Mittwoch

Zeit Temperatur Niederschläge Wind Luftdruck Luftfeuchtigkeit
00:00 +23°C° 0 mm 4 m/S 750 mmHg 83%
01:00 +22°C° 0 mm 4 m/S 750 mmHg 84%
02:00 +22°C° 0 mm 3 m/S 750 mmHg 82%
03:00 +24°C° 0 mm 3 m/S 750 mmHg 81%
04:00 +24°C° 0 mm 3 m/S 750 mmHg 80%
05:00 +24°C° 0 mm 3 m/S 750 mmHg 78%
06:00 +25°C° 0 mm 3 m/S 750 mmHg 75%
07:00 +26°C° 0 mm 3 m/S 750 mmHg 72%
08:00 +27°C° 0 mm 3 m/S 750 mmHg 65%
09:00 +28°C° 0 mm 4 m/S 750 mmHg 57%
10:00 +30°C° 0 mm 4 m/S 750 mmHg 50%
11:00 +30°C° 0 mm 4 m/S 750 mmHg 47%
12:00 +32°C° 0 mm 4 m/S 749 mmHg 45%
13:00 +32°C° 0 mm 4 m/S 749 mmHg 42%
14:00 +32°C° 0 mm 4 m/S 748 mmHg 44%
15:00 +30°C° 0 mm 4 m/S 748 mmHg 46%
16:00 +30°C° 0 mm 4 m/S 748 mmHg 48%
17:00 +28°C° 0 mm 3 m/S 748 mmHg 56%
18:00 +26°C° 0 mm 3 m/S 748 mmHg 63%
19:00 +24°C° 0 mm 2 m/S 748 mmHg 70%
20:00 +24°C° 0 mm 2 m/S 749 mmHg 73%
21:00 +23°C° 0 mm 1 m/S 749 mmHg 75%
22:00 +23°C° 0 mm 1 m/S 750 mmHg 77%
23:00 +22°C° 0 mm 1 m/S 749 mmHg 78%
Mehr zeigen